sat.trackr.live / text

‹ back to catalog

ONEWEB-0227

NORAD 48792 · 2021-045AB

PAYLOAD ACTIVE UNKNOWN

§ Identity

Operator
Country
UK
Launch date
2021-05-28
Launch site
VOSTO
Launch vehicle
Mass (kg)
RCS (m²)

Purposes: comms

External: N2YO · Heavens-Above · Gunter

§ Orbital elements

Epoch: 2026-05-25T02:06:15.736896Z

Period
109.46 min
Inclination
87.8996°
Eccentricity
0.0001777
Mean motion
13.15547525 rev/d
Perigee alt
1,200.4 km
Apogee alt
1,203.1 km
Semi-major
7,579.9 km
B*
5.7884e-4
RAAN
263.7900°
Arg perigee
100.2370°
Mean anomaly
259.8960°
Rev number
24,134

§ Raw data

ONEWEB-02271 48792U 21045AB  26145.08768214  .00000231  00000+0  57884-3 0  99962 48792  87.8996 263.7900 0001777 100.2370 259.8960 13.15547525241342

JSON: /api/v1/satellites/48792 · /tle

For live sub-satellite position, see the globe view (requires WebGL).

§ Visibility from observer

Set your observer location to see the next 7 days of passes ≥ 10°. The values pass through the URL so the page stays shareable.

No JS? Fill the form by hand. The geolocation button needs JavaScript.